Time,TemperatureF,DewpointF,PressureIn,WindDirection,WindDirectionDegrees,WindSpeedMPH,WindSpeedGustMPH,Humidity,HourlyPrecipIn,Conditions,Clouds,dailyrainin,SoftwareType,DateUTC
2013-09-06 00:03:00,65.8,63.4,29.78,SE,133,0.0,0.0,92,0.00,,,0.00,Wunderground v.1.15,2013-09-06 05:03:00,
2013-09-06 00:09:00,65.9,63.5,29.78,SE,132,0.0,0.0,92,0.00,,,0.00,Wunderground v.1.15,2013-09-06 05:09:00,
2013-09-06 00:14:00,66.2,64.1,29.78,SE,132,0.0,0.0,93,0.00,,,0.00,Wunderground v.1.15,2013-09-06 05:14:00,
2013-09-06 00:19:00,66.3,64.2,29.78,SE,132,0.0,0.0,93,0.00,,,0.00,Wunderground v.1.15,2013-09-06 05:19:00,
2013-09-06 00:25:00,66.3,64.2,29.78,SE,132,0.0,0.0,93,0.00,,,0.00,Wunderground v.1.15,2013-09-06 05:25:00,
2013-09-06 00:30:00,66.2,63.8,29.78,SE,128,0.0,0.0,92,0.00,,,0.00,Wunderground v.1.15,2013-09-06 05:30:00,
2013-09-06 00:36:00,66.5,63.8,29.78,SE,128,0.0,0.0,91,0.00,,,0.00,Wunderground v.1.15,2013-09-06 05:36:00,
2013-09-06 00:42:00,66.5,63.5,29.78,SE,128,0.0,0.0,90,0.00,,,0.00,Wunderground v.1.15,2013-09-06 05:42:00,
2013-09-06 00:47:00,66.5,63.8,29.78,SE,128,0.0,0.0,91,0.00,,,0.00,Wunderground v.1.15,2013-09-06 05:47:00,
2013-09-06 00:52:00,66.4,63.7,29.78,SE,128,0.0,0.0,91,0.00,,,0.00,Wunderground v.1.15,2013-09-06 05:52:00,
2013-09-06 00:58:00,66.9,64.2,29.77,SE,128,0.0,0.0,91,0.00,,,0.00,Wunderground v.1.15,2013-09-06 05:58:00,
2013-09-06 01:03:00,67.4,64.4,29.77,SE,128,0.0,0.0,90,0.00,,,0.00,Wunderground v.1.15,2013-09-06 06:03:00,
2013-09-06 01:08:00,67.4,64.4,29.77,SE,124,0.0,0.0,90,0.00,,,0.00,Wunderground v.1.15,2013-09-06 06:08:00,
2013-09-06 01:14:00,67.4,64.0,29.77,ESE,121,0.0,0.0,89,0.00,,,0.00,Wunderground v.1.15,2013-09-06 06:14:00,
2013-09-06 01:19:00,67.3,63.9,29.77,ESE,121,0.0,0.0,89,0.00,,,0.00,Wunderground v.1.15,2013-09-06 06:19:00,
2013-09-06 01:24:00,67.1,63.7,29.77,ESE,121,0.0,0.0,89,0.00,,,0.00,Wunderground v.1.15,2013-09-06 06:24:00,
2013-09-06 01:29:00,67.0,63.6,29.77,ESE,121,0.0,0.0,89,0.00,,,0.00,Wunderground v.1.15,2013-09-06 06:29:00,
2013-09-06 01:35:00,66.9,63.6,29.78,ESE,121,0.0,0.0,89,0.00,,,0.00,Wunderground v.1.15,2013-09-06 06:35:00,
2013-09-06 01:40:00,66.8,63.5,29.78,ESE,121,0.0,0.0,89,0.00,,,0.00,Wunderground v.1.15,2013-09-06 06:40:00,
2013-09-06 01:45:00,67.0,63.6,29.78,ESE,121,0.0,0.0,89,0.00,,,0.00,Wunderground v.1.15,2013-09-06 06:45:00,
2013-09-06 01:50:00,66.9,63.6,29.78,ESE,121,0.0,0.0,89,0.00,,,0.00,Wunderground v.1.15,2013-09-06 06:50:00,
2013-09-06 01:56:00,66.9,63.6,29.78,ESE,121,0.0,0.0,89,0.00,,,0.00,Wunderground v.1.15,2013-09-06 06:56:00,
2013-09-06 02:01:00,66.7,63.4,29.78,ESE,121,0.0,0.0,89,0.00,,,0.00,Wunderground v.1.15,2013-09-06 07:01:00,
2013-09-06 02:06:00,66.8,63.8,29.78,ESE,121,0.0,0.0,90,0.00,,,0.00,Wunderground v.1.15,2013-09-06 07:06:00,
2013-09-06 02:11:00,67.1,63.7,29.78,ESE,121,0.0,0.0,89,0.00,,,0.00,Wunderground v.1.15,2013-09-06 07:11:00,
2013-09-06 02:16:00,67.2,63.8,29.77,ESE,121,0.0,0.0,89,0.00,,,0.00,Wunderground v.1.15,2013-09-06 07:16:00,
2013-09-06 02:21:00,67.3,63.9,29.77,ESE,121,0.0,0.0,89,0.00,,,0.00,Wunderground v.1.15,2013-09-06 07:21:00,
2013-09-06 02:26:00,67.1,63.7,29.77,ESE,121,0.0,0.0,89,0.00,,,0.00,Wunderground v.1.15,2013-09-06 07:26:00,
2013-09-06 02:31:00,67.0,64.0,29.77,ESE,121,0.0,0.0,90,0.00,,,0.00,Wunderground v.1.15,2013-09-06 07:31:00,
2013-09-06 02:36:00,66.9,63.9,29.77,ESE,122,0.0,0.0,90,0.00,,,0.00,Wunderground v.1.15,2013-09-06 07:36:00,
2013-09-06 02:41:00,66.9,63.9,29.77,ESE,121,0.0,0.0,90,0.00,,,0.00,Wunderground v.1.15,2013-09-06 07:41:00,
2013-09-06 02:46:00,66.9,63.9,29.77,ESE,122,0.0,1.0,90,0.00,,,0.00,Wunderground v.1.15,2013-09-06 07:46:00,
2013-09-06 02:51:00,67.0,63.6,29.77,ESE,108,0.0,0.0,89,0.00,,,0.00,Wunderground v.1.15,2013-09-06 07:51:00,
2013-09-06 02:56:00,67.1,63.4,29.77,ESE,108,0.0,1.0,88,0.00,,,0.00,Wunderground v.1.15,2013-09-06 07:56:00,
2013-09-06 03:01:00,67.1,63.4,29.77,ESE,108,0.0,0.0,88,0.00,,,0.00,Wunderground v.1.15,2013-09-06 08:01:00,
2013-09-06 03:06:00,67.4,63.7,29.76,ESE,107,0.0,1.0,88,0.00,,,0.00,Wunderground v.1.15,2013-09-06 08:06:00,
2013-09-06 03:11:00,67.5,63.5,29.76,ESE,107,0.0,0.0,87,0.00,,,0.00,Wunderground v.1.15,2013-09-06 08:11:00,
2013-09-06 03:16:00,67.5,63.5,29.76,SE,134,0.0,1.0,87,0.00,,,0.00,Wunderground v.1.15,2013-09-06 08:16:00,
2013-09-06 03:21:00,66.9,63.2,29.76,SE,132,0.0,0.0,88,0.00,,,0.00,Wunderground v.1.15,2013-09-06 08:21:00,
2013-09-06 03:26:00,66.7,63.4,29.76,SE,132,0.0,0.0,89,0.00,,,0.00,Wunderground v.1.15,2013-09-06 08:26:00,
2013-09-06 03:31:00,66.5,63.2,29.76,SE,132,0.0,0.0,89,0.00,,,0.00,Wunderground v.1.15,2013-09-06 08:31:00,
2013-09-06 03:36:00,66.5,63.5,29.76,SE,131,0.0,0.0,90,0.00,,,0.00,Wunderground v.1.15,2013-09-06 08:36:00,
2013-09-06 03:41:00,66.4,63.4,29.76,SE,132,0.0,0.0,90,0.00,,,0.00,Wunderground v.1.15,2013-09-06 08:41:00,
2013-09-06 03:46:00,66.3,63.6,29.76,NNW,329,0.0,1.0,91,0.00,,,0.00,Wunderground v.1.15,2013-09-06 08:46:00,
2013-09-06 03:51:00,66.5,63.8,29.76,NNW,329,0.0,0.0,91,0.00,,,0.00,Wunderground v.1.15,2013-09-06 08:51:00,
2013-09-06 03:57:00,66.6,63.9,29.76,North,349,0.0,1.0,91,0.00,,,0.00,Wunderground v.1.15,2013-09-06 08:57:00,
2013-09-06 04:02:00,66.7,64.0,29.76,North,349,0.0,0.0,91,0.00,,,0.00,Wunderground v.1.15,2013-09-06 09:02:00,
2013-09-06 04:07:00,66.9,63.9,29.76,North,4,0.0,1.0,90,0.00,,,0.00,Wunderground v.1.15,2013-09-06 09:07:00,
2013-09-06 04:12:00,67.0,64.0,29.76,NE,37,1.0,1.0,90,0.00,,,0.00,Wunderground v.1.15,2013-09-06 09:12:00,
2013-09-06 04:17:00,67.2,64.2,29.76,North,360,1.0,2.0,90,0.00,,,0.00,Wunderground v.1.15,2013-09-06 09:17:00,
2013-09-06 04:22:00,67.2,64.2,29.76,NE,37,0.0,1.0,90,0.00,,,0.00,Wunderground v.1.15,2013-09-06 09:22:00,
2013-09-06 04:27:00,67.1,64.1,29.76,NE,38,0.0,1.0,90,0.00,,,0.00,Wunderground v.1.15,2013-09-06 09:27:00,
2013-09-06 04:32:00,67.1,64.1,29.76,NNE,12,0.0,1.0,90,0.00,,,0.00,Wunderground v.1.15,2013-09-06 09:32:00,
2013-09-06 04:37:00,67.0,63.6,29.76,NNE,12,1.0,2.0,89,0.00,,,0.00,Wunderground v.1.15,2013-09-06 09:37:00,
2013-09-06 04:42:00,67.0,64.0,29.76,North,355,1.0,2.0,90,0.00,,,0.00,Wunderground v.1.15,2013-09-06 09:42:00,
2013-09-06 04:47:00,66.9,63.6,29.76,North,1,1.0,3.0,89,0.00,,,0.00,Wunderground v.1.15,2013-09-06 09:47:00,
2013-09-06 04:52:00,66.8,63.5,29.76,North,7,1.0,2.0,89,0.00,,,0.00,Wunderground v.1.15,2013-09-06 09:52:00,
2013-09-06 04:57:00,66.7,63.4,29.76,North,3,0.0,2.0,89,0.00,,,0.00,Wunderground v.1.15,2013-09-06 09:57:00,
2013-09-06 05:02:00,66.6,63.6,29.76,North,4,0.0,1.0,90,0.00,,,0.00,Wunderground v.1.15,2013-09-06 10:02:00,
2013-09-06 05:07:00,66.5,63.5,29.77,North,4,1.0,1.0,90,0.00,,,0.00,Wunderground v.1.15,2013-09-06 10:07:00,
2013-09-06 05:12:00,66.5,63.5,29.77,NNE,29,0.0,1.0,90,0.00,,,0.00,Wunderground v.1.15,2013-09-06 10:12:00,
2013-09-06 05:17:00,66.1,63.1,29.76,NE,36,0.0,1.0,90,0.00,,,0.00,Wunderground v.1.15,2013-09-06 10:17:00,
2013-09-06 05:22:00,65.9,63.2,29.76,NE,36,0.0,0.0,91,0.00,,,0.00,Wunderground v.1.15,2013-09-06 10:22:00,
2013-09-06 05:28:00,66.0,63.6,29.76,NE,38,2.0,2.0,92,0.00,,,0.00,Wunderground v.1.15,2013-09-06 10:28:00,
2013-09-06 05:33:00,66.1,63.7,29.76,ENE,65,0.0,1.0,92,0.00,,,0.00,Wunderground v.1.15,2013-09-06 10:33:00,
2013-09-06 05:38:00,66.1,63.7,29.77,ENE,65,0.0,1.0,92,0.00,,,0.00,Wunderground v.1.15,2013-09-06 10:38:00,
2013-09-06 05:43:00,66.0,63.3,29.76,SE,124,0.0,1.0,91,0.00,,,0.00,Wunderground v.1.15,2013-09-06 10:43:00,
2013-09-06 05:48:00,65.8,63.1,29.77,East,97,0.0,1.0,91,0.00,,,0.00,Wunderground v.1.15,2013-09-06 10:48:00,
2013-09-06 05:53:00,65.5,62.8,29.76,East,99,0.0,1.0,91,0.00,,,0.00,Wunderground v.1.15,2013-09-06 10:53:00,
2013-09-06 05:58:00,65.4,63.0,29.77,SE,129,0.0,1.0,92,0.00,,,0.00,Wunderground v.1.15,2013-09-06 10:58:00,
2013-09-06 06:03:00,65.2,62.8,29.77,SW,226,0.0,2.0,92,0.00,,,0.00,Wunderground v.1.15,2013-09-06 11:03:00,
2013-09-06 06:08:00,65.1,62.7,29.77,ESE,112,0.0,2.0,92,0.00,,,0.00,Wunderground v.1.15,2013-09-06 11:08:00,
2013-09-06 06:13:00,65.0,62.9,29.77,ESE,113,0.0,0.0,93,0.00,,,0.00,Wunderground v.1.15,2013-09-06 11:13:00,
2013-09-06 06:18:00,64.8,62.7,29.77,SE,146,0.0,1.0,93,0.00,,,0.00,Wunderground v.1.15,2013-09-06 11:18:00,
2013-09-06 06:23:00,64.8,62.7,29.77,SSE,160,0.0,1.0,93,0.00,,,0.00,Wunderground v.1.15,2013-09-06 11:23:00,
2013-09-06 06:28:00,64.7,62.6,29.77,SSE,160,0.0,1.0,93,0.00,,,0.00,Wunderground v.1.15,2013-09-06 11:28:00,
2013-09-06 06:33:00,64.7,62.9,29.77,SSE,163,0.0,0.0,94,0.00,,,0.00,Wunderground v.1.15,2013-09-06 11:33:00,
2013-09-06 06:38:00,64.8,63.0,29.77,South,177,0.0,0.0,94,0.00,,,0.00,Wunderground v.1.15,2013-09-06 11:38:00,
2013-09-06 06:43:00,64.9,63.1,29.77,West,274,0.0,1.0,94,0.00,,,0.00,Wunderground v.1.15,2013-09-06 11:43:00,
2013-09-06 06:48:00,65.0,63.2,29.77,WNW,283,0.0,1.0,94,0.00,,,0.00,Wunderground v.1.15,2013-09-06 11:48:00,
2013-09-06 06:53:00,65.0,63.2,29.77,NNW,338,0.0,1.0,94,0.00,,,0.00,Wunderground v.1.15,2013-09-06 11:53:00,
2013-09-06 06:58:00,65.1,63.3,29.77,NW,311,0.0,1.0,94,0.00,,,0.00,Wunderground v.1.15,2013-09-06 11:58:00,
2013-09-06 07:03:00,65.1,63.3,29.77,NW,311,0.0,0.0,94,0.00,,,0.00,Wunderground v.1.15,2013-09-06 12:03:00,
2013-09-06 07:08:00,65.2,63.1,29.77,NW,311,0.0,1.0,93,0.00,,,0.00,Wunderground v.1.15,2013-09-06 12:08:00,
2013-09-06 07:14:00,65.6,63.5,29.78,NNE,23,0.0,0.0,93,0.00,,,0.00,Wunderground v.1.15,2013-09-06 12:14:00,
2013-09-06 07:19:00,66.1,63.4,29.78,NE,40,0.0,0.0,91,0.00,,,0.00,Wunderground v.1.15,2013-09-06 12:19:00,
2013-09-06 07:23:00,66.7,63.7,29.78,ESE,102,0.0,0.0,90,0.00,,,0.00,Wunderground v.1.15,2013-09-06 12:23:00,
2013-09-06 07:29:00,67.0,63.6,29.78,SE,124,0.0,2.0,89,0.00,,,0.00,Wunderground v.1.15,2013-09-06 12:29:00,
2013-09-06 07:34:00,67.0,63.6,29.78,SSE,158,0.0,1.0,89,0.00,,,0.00,Wunderground v.1.15,2013-09-06 12:34:00,
2013-09-06 07:39:00,67.0,63.6,29.78,East,82,0.0,1.0,89,0.00,,,0.00,Wunderground v.1.15,2013-09-06 12:39:00,
2013-09-06 07:44:00,67.1,63.4,29.78,WNW,295,1.0,1.0,88,0.00,,,0.00,Wunderground v.1.15,2013-09-06 12:44:00,
2013-09-06 07:49:00,67.2,63.2,29.78,WNW,300,0.0,3.0,87,0.00,,,0.00,Wunderground v.1.15,2013-09-06 12:49:00,
2013-09-06 07:54:00,67.2,63.2,29.78,NE,46,0.0,4.0,87,0.00,,,0.00,Wunderground v.1.15,2013-09-06 12:54:00,
2013-09-06 07:59:00,67.5,63.5,29.78,NNE,25,0.0,4.0,87,0.00,,,0.00,Wunderground v.1.15,2013-09-06 12:59:00,
2013-09-06 08:04:00,67.6,63.6,29.78,NE,52,1.0,2.0,87,0.00,,,0.00,Wunderground v.1.15,2013-09-06 13:04:00,
2013-09-06 08:09:00,67.9,63.6,29.78,NE,53,1.0,3.0,86,0.00,,,0.00,Wunderground v.1.15,2013-09-06 13:09:00,
2013-09-06 08:14:00,68.1,63.4,29.78,WNW,302,2.0,3.0,85,0.00,,,0.00,Wunderground v.1.15,2013-09-06 13:14:00,
2013-09-06 08:19:00,68.3,63.6,29.78,ENE,58,3.0,3.0,85,0.00,,,0.00,Wunderground v.1.15,2013-09-06 13:19:00,
2013-09-06 08:24:00,68.8,63.8,29.78,ESE,115,0.0,2.0,84,0.00,,,0.00,Wunderground v.1.15,2013-09-06 13:24:00,
2013-09-06 08:29:00,69.1,64.1,29.78,SSE,160,0.0,1.0,84,0.00,,,0.00,Wunderground v.1.15,2013-09-06 13:29:00,
2013-09-06 08:34:00,69.4,64.0,29.78,NE,47,0.0,3.0,83,0.00,,,0.00,Wunderground v.1.15,2013-09-06 13:34:00,
2013-09-06 08:39:00,69.7,64.3,29.78,ESE,111,0.0,1.0,83,0.00,,,0.00,Wunderground v.1.15,2013-09-06 13:39:00,
2013-09-06 08:45:00,70.0,63.9,29.78,NE,52,0.0,6.0,81,0.00,,,0.00,Wunderground v.1.15,2013-09-06 13:45:00,
2013-09-06 08:50:00,70.2,64.1,29.78,ESE,107,0.0,1.0,81,0.00,,,0.00,Wunderground v.1.15,2013-09-06 13:50:00,
2013-09-06 08:55:00,70.5,64.0,29.78,ESE,118,1.0,4.0,80,0.00,,,0.00,Wunderground v.1.15,2013-09-06 13:55:00,
2013-09-06 09:00:00,71.0,64.5,29.79,ENE,70,1.0,1.0,80,0.00,,,0.00,Wunderground v.1.15,2013-09-06 14:00:00,
2013-09-06 09:05:00,71.3,64.4,29.79,NE,49,2.0,5.0,79,0.00,,,0.00,Wunderground v.1.15,2013-09-06 14:05:00,
2013-09-06 09:10:00,71.3,64.8,29.79,NE,39,0.0,2.0,80,0.00,,,0.00,Wunderground v.1.15,2013-09-06 14:10:00,
2013-09-06 09:15:00,71.5,64.6,29.79,SE,139,1.0,4.0,79,0.00,,,0.00,Wunderground v.1.15,2013-09-06 14:15:00,
2013-09-06 09:20:00,71.9,64.7,29.79,NNE,20,2.0,4.0,78,0.00,,,0.00,Wunderground v.1.15,2013-09-06 14:20:00,
2013-09-06 09:25:00,72.4,64.8,29.79,North,5,0.0,4.0,77,0.00,,,0.00,Wunderground v.1.15,2013-09-06 14:25:00,
2013-09-06 09:30:00,72.8,65.2,29.79,ENE,70,2.0,3.0,77,0.00,,,0.00,Wunderground v.1.15,2013-09-06 14:30:00,
2013-09-06 09:35:00,73.2,65.2,29.79,SSE,152,1.0,3.0,76,0.00,,,0.00,Wunderground v.1.15,2013-09-06 14:35:00,
2013-09-06 09:40:00,73.6,65.2,29.80,ENE,57,4.0,4.0,75,0.00,,,0.00,Wunderground v.1.15,2013-09-06 14:40:00,
2013-09-06 09:45:00,73.8,65.4,29.79,East,95,1.0,5.0,75,0.00,,,0.00,Wunderground v.1.15,2013-09-06 14:45:00,
2013-09-06 09:50:00,73.9,65.5,29.79,SE,146,0.0,3.0,75,0.00,,,0.00,Wunderground v.1.15,2013-09-06 14:50:00,
2013-09-06 09:55:00,74.7,65.9,29.79,ESE,115,3.0,4.0,74,0.00,,,0.00,Wunderground v.1.15,2013-09-06 14:55:00,
2013-09-06 10:01:00,75.2,66.3,29.80,SE,131,5.0,5.0,74,0.00,,,0.00,Wunderground v.1.15,2013-09-06 15:01:00,
2013-09-06 10:06:00,75.2,65.6,29.80,SE,129,3.0,6.0,72,0.00,,,0.00,Wunderground v.1.15,2013-09-06 15:06:00,
2013-09-06 10:11:00,75.3,65.6,29.79,ESE,105,2.0,2.0,72,0.00,,,0.00,Wunderground v.1.15,2013-09-06 15:11:00,
2013-09-06 10:16:00,75.3,65.2,29.79,SSE,149,4.0,5.0,71,0.00,,,0.00,Wunderground v.1.15,2013-09-06 15:16:00,
2013-09-06 10:21:00,75.4,65.3,29.80,ESE,103,2.0,5.0,71,0.00,,,0.00,Wunderground v.1.15,2013-09-06 15:21:00,
2013-09-06 10:26:00,75.7,64.8,29.79,SE,129,2.0,7.0,69,0.00,,,0.00,Wunderground v.1.15,2013-09-06 15:26:00,
2013-09-06 10:31:00,75.9,65.0,29.79,SE,132,3.0,4.0,69,0.00,,,0.00,Wunderground v.1.15,2013-09-06 15:31:00,
2013-09-06 10:36:00,76.3,65.0,29.79,ESE,105,2.0,5.0,68,0.00,,,0.00,Wunderground v.1.15,2013-09-06 15:36:00,
2013-09-06 10:41:00,76.3,65.0,29.79,East,98,1.0,3.0,68,0.00,,,0.00,Wunderground v.1.15,2013-09-06 15:41:00,
2013-09-06 10:46:00,76.7,64.9,29.79,SSE,147,3.0,5.0,67,0.00,,,0.00,Wunderground v.1.15,2013-09-06 15:46:00,
2013-09-06 10:51:00,77.1,65.3,29.79,East,91,1.0,4.0,67,0.00,,,0.00,Wunderground v.1.15,2013-09-06 15:51:00,
2013-09-06 10:56:00,77.4,64.7,29.79,NE,49,3.0,4.0,65,0.00,,,0.00,Wunderground v.1.15,2013-09-06 15:56:00,
2013-09-06 11:01:00,77.5,64.8,29.79,SSE,160,0.0,3.0,65,0.00,,,0.00,Wunderground v.1.15,2013-09-06 16:01:00,
2013-09-06 11:06:00,78.2,64.6,29.79,SE,131,3.0,5.0,63,0.00,,,0.00,Wunderground v.1.15,2013-09-06 16:06:00,
2013-09-06 11:11:00,78.1,64.9,29.79,SSE,149,4.0,4.0,64,0.00,,,0.00,Wunderground v.1.15,2013-09-06 16:11:00,
2013-09-06 11:16:00,78.2,65.5,29.79,ESE,113,0.0,5.0,65,0.00,,,0.00,Wunderground v.1.15,2013-09-06 16:16:00,
2013-09-06 11:21:00,78.8,65.1,29.79,ESE,113,2.0,3.0,63,0.00,,,0.00,Wunderground v.1.15,2013-09-06 16:21:00,
2013-09-06 11:26:00,78.5,65.3,29.79,SSE,163,2.0,6.0,64,0.00,,,0.00,Wunderground v.1.15,2013-09-06 16:26:00,
2013-09-06 11:32:00,78.8,65.1,29.79,SE,146,2.0,5.0,63,0.00,,,0.00,Wunderground v.1.15,2013-09-06 16:32:00,
2013-09-06 11:37:00,79.2,66.0,29.78,SE,128,2.0,5.0,64,0.00,,,0.00,Wunderground v.1.15,2013-09-06 16:37:00,
2013-09-06 11:42:00,79.1,64.0,29.78,NE,44,3.0,4.0,60,0.00,,,0.00,Wunderground v.1.15,2013-09-06 16:42:00,
2013-09-06 11:47:00,79.1,64.5,29.78,East,96,2.0,5.0,61,0.00,,,0.00,Wunderground v.1.15,2013-09-06 16:47:00,
2013-09-06 11:52:00,79.5,65.3,29.78,ESE,115,2.0,2.0,62,0.00,,,0.00,Wunderground v.1.15,2013-09-06 16:52:00,
2013-09-06 11:57:00,79.4,64.8,29.78,NNE,21,1.0,5.0,61,0.00,,,0.00,Wunderground v.1.15,2013-09-06 16:57:00,
2013-09-06 12:02:00,80.2,64.6,29.78,SSE,167,1.0,4.0,59,0.00,,,0.00,Wunderground v.1.15,2013-09-06 17:02:00,
2013-09-06 12:07:00,79.7,64.1,29.78,East,96,2.0,5.0,59,0.00,,,0.00,Wunderground v.1.15,2013-09-06 17:07:00,
2013-09-06 12:12:00,79.9,64.3,29.78,SE,124,1.0,4.0,59,0.00,,,0.00,Wunderground v.1.15,2013-09-06 17:12:00,
2013-09-06 12:17:00,79.5,63.9,29.78,ESE,110,2.0,6.0,59,0.00,,,0.00,Wunderground v.1.15,2013-09-06 17:17:00,
2013-09-06 12:22:00,80.2,63.6,29.77,ENE,70,0.0,4.0,57,0.00,,,0.00,Wunderground v.1.15,2013-09-06 17:22:00,
2013-09-06 12:27:00,80.2,64.1,29.77,SE,134,2.0,5.0,58,0.00,,,0.00,Wunderground v.1.15,2013-09-06 17:27:00,
2013-09-06 12:32:00,80.4,64.3,29.77,ENE,69,3.0,5.0,58,0.00,,,0.00,Wunderground v.1.15,2013-09-06 17:32:00,
2013-09-06 12:37:00,80.4,63.8,29.77,East,96,2.0,6.0,57,0.00,,,0.00,Wunderground v.1.15,2013-09-06 17:37:00,
2013-09-06 12:42:00,80.6,64.9,29.77,ESE,110,3.0,4.0,59,0.00,,,0.00,Wunderground v.1.15,2013-09-06 17:42:00,
2013-09-06 12:47:00,81.0,64.8,29.77,East,86,5.0,5.0,58,0.00,,,0.00,Wunderground v.1.15,2013-09-06 17:47:00,
2013-09-06 12:52:00,80.3,63.2,29.77,NE,55,1.0,5.0,56,0.00,,,0.00,Wunderground v.1.15,2013-09-06 17:52:00,
2013-09-06 12:57:00,80.0,63.4,29.77,NNE,18,2.0,5.0,57,0.00,,,0.00,Wunderground v.1.15,2013-09-06 17:57:00,
2013-09-06 13:02:00,80.3,64.2,29.76,NE,54,3.0,4.0,58,0.00,,,0.00,Wunderground v.1.15,2013-09-06 18:02:00,
2013-09-06 13:07:00,80.5,63.9,29.76,NNE,20,0.0,4.0,57,0.00,,,0.00,Wunderground v.1.15,2013-09-06 18:07:00,
2013-09-06 13:12:00,80.0,63.9,29.76,NE,39,2.0,5.0,58,0.00,,,0.00,Wunderground v.1.15,2013-09-06 18:12:00,
2013-09-06 13:17:00,80.4,64.3,29.76,ENE,58,3.0,7.0,58,0.00,,,0.00,Wunderground v.1.15,2013-09-06 18:17:00,
2013-09-06 13:22:00,80.0,63.9,29.76,NNW,327,1.0,8.0,58,0.00,,,0.00,Wunderground v.1.15,2013-09-06 18:22:00,
2013-09-06 13:27:00,80.0,63.9,29.76,ESE,105,2.0,8.0,58,0.00,,,0.00,Wunderground v.1.15,2013-09-06 18:27:00,
2013-09-06 13:32:00,80.0,64.4,29.75,East,99,1.0,7.0,59,0.00,,,0.00,Wunderground v.1.15,2013-09-06 18:32:00,
2013-09-06 13:37:00,80.3,64.7,29.75,ENE,63,1.0,7.0,59,0.00,,,0.00,Wunderground v.1.15,2013-09-06 18:37:00,
2013-09-06 13:42:00,80.3,64.7,29.75,NNE,19,2.0,4.0,59,0.00,,,0.00,Wunderground v.1.15,2013-09-06 18:42:00,
2013-09-06 13:47:00,80.3,64.7,29.75,NNW,332,1.0,6.0,59,0.00,,,0.00,Wunderground v.1.15,2013-09-06 18:47:00,
2013-09-06 13:53:00,80.7,64.1,29.75,North,359,3.0,7.0,57,0.00,,,0.00,Wunderground v.1.15,2013-09-06 18:53:00,
2013-09-06 13:58:00,80.9,64.7,29.74,East,95,2.0,7.0,58,0.00,,,0.00,Wunderground v.1.15,2013-09-06 18:58:00,
2013-09-06 14:03:00,80.9,64.7,29.74,NNE,31,6.0,6.0,58,0.00,,,0.00,Wunderground v.1.15,2013-09-06 19:03:00,
2013-09-06 14:08:00,80.6,64.0,29.74,NE,41,4.0,8.0,57,0.00,,,0.00,Wunderground v.1.15,2013-09-06 19:08:00,
2013-09-06 14:13:00,81.0,64.3,29.74,ESE,110,2.0,4.0,57,0.00,,,0.00,Wunderground v.1.15,2013-09-06 19:13:00,
2013-09-06 14:18:00,81.2,64.5,29.74,North,9,2.0,6.0,57,0.00,,,0.00,Wunderground v.1.15,2013-09-06 19:18:00,
2013-09-06 14:23:00,81.3,64.1,29.73,NE,53,6.0,6.0,56,0.00,,,0.00,Wunderground v.1.15,2013-09-06 19:23:00,
2013-09-06 14:28:00,81.2,64.5,29.73,NE,38,5.0,6.0,57,0.00,,,0.00,Wunderground v.1.15,2013-09-06 19:28:00,
2013-09-06 14:33:00,81.3,64.6,29.73,ESE,104,3.0,4.0,57,0.00,,,0.00,Wunderground v.1.15,2013-09-06 19:33:00,
2013-09-06 14:38:00,81.4,64.2,29.73,NNE,31,5.0,5.0,56,0.00,,,0.00,Wunderground v.1.15,2013-09-06 19:38:00,
2013-09-06 14:43:00,81.9,65.2,29.73,NE,47,2.0,4.0,57,0.00,,,0.00,Wunderground v.1.15,2013-09-06 19:43:00,
2013-09-06 14:48:00,82.5,65.2,29.73,ESE,102,1.0,4.0,56,0.00,,,0.00,Wunderground v.1.15,2013-09-06 19:48:00,
2013-09-06 14:53:00,81.9,64.1,29.72,ESE,104,1.0,5.0,55,0.00,,,0.00,Wunderground v.1.15,2013-09-06 19:53:00,
2013-09-06 14:58:00,81.5,64.3,29.72,NE,54,4.0,7.0,56,0.00,,,0.00,Wunderground v.1.15,2013-09-06 19:58:00,
2013-09-06 15:03:00,81.6,64.4,29.72,NE,45,4.0,6.0,56,0.00,,,0.00,Wunderground v.1.15,2013-09-06 20:03:00,
2013-09-06 15:08:00,81.7,65.0,29.72,NNE,19,1.0,7.0,57,0.00,,,0.00,Wunderground v.1.15,2013-09-06 20:08:00,
2013-09-06 15:13:00,82.1,65.4,29.72,ENE,78,3.0,5.0,57,0.00,,,0.00,Wunderground v.1.15,2013-09-06 20:13:00,
2013-09-06 15:18:00,82.3,64.5,29.71,SSW,213,0.0,5.0,55,0.00,,,0.00,Wunderground v.1.15,2013-09-06 20:18:00,
2013-09-06 15:24:00,82.1,64.3,29.71,ENE,61,1.0,4.0,55,0.00,,,0.00,Wunderground v.1.15,2013-09-06 20:24:00,
2013-09-06 15:29:00,82.6,65.3,29.71,SE,133,1.0,4.0,56,0.00,,,0.00,Wunderground v.1.15,2013-09-06 20:29:00,
2013-09-06 15:34:00,82.8,65.0,29.71,WNW,284,2.0,4.0,55,0.00,,,0.00,Wunderground v.1.15,2013-09-06 20:34:00,
2013-09-06 15:39:00,82.9,65.6,29.71,East,82,2.0,4.0,56,0.00,,,0.00,Wunderground v.1.15,2013-09-06 20:39:00,
2013-09-06 15:44:00,82.2,65.4,29.70,NNE,15,3.0,4.0,57,0.00,,,0.00,Wunderground v.1.15,2013-09-06 20:44:00,
2013-09-06 15:49:00,82.0,64.8,29.70,East,96,1.0,4.0,56,0.00,,,0.00,Wunderground v.1.15,2013-09-06 20:49:00,
2013-09-06 15:54:00,82.1,64.8,29.70,East,82,2.0,3.0,56,0.00,,,0.00,Wunderground v.1.15,2013-09-06 20:54:00,
2013-09-06 15:59:00,82.1,65.4,29.70,NE,53,2.0,5.0,57,0.00,,,0.00,Wunderground v.1.15,2013-09-06 20:59:00,
2013-09-06 16:04:00,82.2,65.4,29.70,SE,139,0.0,5.0,57,0.00,,,0.00,Wunderground v.1.15,2013-09-06 21:04:00,
2013-09-06 16:09:00,82.1,65.4,29.70,ENE,63,1.0,7.0,57,0.00,,,0.00,Wunderground v.1.15,2013-09-06 21:09:00,
2013-09-06 16:14:00,82.1,65.4,29.70,ESE,121,2.0,4.0,57,0.00,,,0.00,Wunderground v.1.15,2013-09-06 21:14:00,
2013-09-06 16:19:00,82.2,66.0,29.70,NE,41,3.0,5.0,58,0.00,,,0.00,Wunderground v.1.15,2013-09-06 21:19:00,
2013-09-06 16:24:00,82.1,65.9,29.70,NE,55,3.0,4.0,58,0.00,,,0.00,Wunderground v.1.15,2013-09-06 21:24:00,
2013-09-06 16:29:00,81.8,65.6,29.70,NE,42,3.0,6.0,58,0.00,,,0.00,Wunderground v.1.15,2013-09-06 21:29:00,
2013-09-06 16:34:00,82.0,65.3,29.70,NE,51,1.0,4.0,57,0.00,,,0.00,Wunderground v.1.15,2013-09-06 21:34:00,
2013-09-06 16:39:00,81.8,65.1,29.69,NE,41,3.0,5.0,57,0.00,,,0.00,Wunderground v.1.15,2013-09-06 21:39:00,
2013-09-06 16:44:00,81.4,65.7,29.69,NE,36,4.0,5.0,59,0.00,,,0.00,Wunderground v.1.15,2013-09-06 21:44:00,
2013-09-06 16:49:00,81.4,65.2,29.69,East,84,0.0,5.0,58,0.00,,,0.00,Wunderground v.1.15,2013-09-06 21:49:00,
2013-09-06 16:54:00,81.5,65.3,29.69,ESE,103,0.0,5.0,58,0.00,,,0.00,Wunderground v.1.15,2013-09-06 21:54:00,
2013-09-06 16:59:00,82.0,65.8,29.69,SE,135,1.0,5.0,58,0.00,,,0.00,Wunderground v.1.15,2013-09-06 21:59:00,
2013-09-06 17:04:00,82.2,66.0,29.69,ESE,106,2.0,4.0,58,0.00,,,0.00,Wunderground v.1.15,2013-09-06 22:04:00,
2013-09-06 17:09:00,82.1,65.4,29.69,East,90,2.0,4.0,57,0.00,,,0.00,Wunderground v.1.15,2013-09-06 22:09:00,
2013-09-06 17:14:00,81.9,65.7,29.69,ESE,113,0.0,3.0,58,0.00,,,0.00,Wunderground v.1.15,2013-09-06 22:14:00,
2013-09-06 17:19:00,81.9,65.7,29.69,NE,46,1.0,3.0,58,0.00,,,0.00,Wunderground v.1.15,2013-09-06 22:19:00,
2013-09-06 17:24:00,82.4,66.1,29.69,SSE,149,0.0,3.0,58,0.00,,,0.00,Wunderground v.1.15,2013-09-06 22:24:00,
2013-09-06 17:30:00,82.3,66.0,29.69,East,98,2.0,2.0,58,0.00,,,0.00,Wunderground v.1.15,2013-09-06 22:30:00,
2013-09-06 17:35:00,81.9,65.7,29.69,NE,50,0.0,2.0,58,0.00,,,0.00,Wunderground v.1.15,2013-09-06 22:35:00,
2013-09-06 17:40:00,81.6,66.4,29.69,East,82,0.0,1.0,60,0.00,,,0.00,Wunderground v.1.15,2013-09-06 22:40:00,
2013-09-06 17:45:00,81.6,66.8,29.69,ESE,110,1.0,1.0,61,0.00,,,0.00,Wunderground v.1.15,2013-09-06 22:45:00,
2013-09-06 17:50:00,81.5,66.8,29.69,East,97,0.0,1.0,61,0.00,,,0.00,Wunderground v.1.15,2013-09-06 22:50:00,
2013-09-06 17:55:00,81.4,66.7,29.69,NNE,26,0.0,2.0,61,0.00,,,0.00,Wunderground v.1.15,2013-09-06 22:55:00,
2013-09-06 18:00:00,81.6,66.8,29.69,NE,37,0.0,1.0,61,0.00,,,0.00,Wunderground v.1.15,2013-09-06 23:00:00,
2013-09-06 18:05:00,81.8,67.0,29.69,SE,133,1.0,2.0,61,0.00,,,0.00,Wunderground v.1.15,2013-09-06 23:05:00,
2013-09-06 18:10:00,81.9,67.1,29.69,East,82,0.0,0.0,61,0.00,,,0.00,Wunderground v.1.15,2013-09-06 23:10:00,
2013-09-06 18:15:00,81.7,66.5,29.69,NE,44,2.0,2.0,60,0.00,,,0.00,Wunderground v.1.15,2013-09-06 23:15:00,
2013-09-06 18:20:00,80.8,67.0,29.69,ESE,103,0.0,1.0,63,0.00,,,0.00,Wunderground v.1.15,2013-09-06 23:20:00,
2013-09-06 18:25:00,80.5,67.2,29.69,ENE,72,0.0,2.0,64,0.00,,,0.00,Wunderground v.1.15,2013-09-06 23:25:00,
2013-09-06 18:30:00,80.1,66.8,29.69,ENE,61,1.0,2.0,64,0.00,,,0.00,Wunderground v.1.15,2013-09-06 23:30:00,
2013-09-06 18:35:00,79.8,67.0,29.69,ENE,58,0.0,2.0,65,0.00,,,0.00,Wunderground v.1.15,2013-09-06 23:35:00,
2013-09-06 18:40:00,79.7,66.4,29.68,NE,56,0.0,1.0,64,0.00,,,0.00,Wunderground v.1.15,2013-09-06 23:40:00,
2013-09-06 18:45:00,79.6,66.8,29.68,ENE,77,0.0,1.0,65,0.00,,,0.00,Wunderground v.1.15,2013-09-06 23:45:00,
2013-09-06 18:50:00,79.5,67.1,29.68,East,79,0.0,0.0,66,0.00,,,0.00,Wunderground v.1.15,2013-09-06 23:50:00,
2013-09-06 18:55:00,79.3,67.8,29.68,East,82,0.0,0.0,68,0.00,,,0.00,Wunderground v.1.15,2013-09-06 23:55:00,
2013-09-06 19:00:00,78.9,67.4,29.68,East,81,0.0,0.0,68,0.00,,,0.00,Wunderground v.1.15,2013-09-07 00:00:00,
2013-09-06 19:05:00,78.6,67.2,29.68,East,79,0.0,0.0,68,0.00,,,0.00,Wunderground v.1.15,2013-09-07 00:05:00,
2013-09-06 19:10:00,78.2,67.2,29.68,East,82,0.0,0.0,69,0.00,,,0.00,Wunderground v.1.15,2013-09-07 00:10:00,
2013-09-06 19:15:00,77.8,67.2,29.68,East,85,0.0,0.0,70,0.00,,,0.00,Wunderground v.1.15,2013-09-07 00:15:00,
2013-09-06 19:20:00,77.4,67.7,29.68,East,97,0.0,0.0,72,0.00,,,0.00,Wunderground v.1.15,2013-09-07 00:20:00,
2013-09-06 19:25:00,77.1,67.8,29.68,East,98,0.0,0.0,73,0.00,,,0.00,Wunderground v.1.15,2013-09-07 00:25:00,
2013-09-06 19:31:00,76.7,67.4,29.68,East,98,0.0,0.0,73,0.00,,,0.00,Wunderground v.1.15,2013-09-07 00:31:00,
2013-09-06 19:36:00,76.3,67.4,29.68,East,96,0.0,0.0,74,0.00,,,0.00,Wunderground v.1.15,2013-09-07 00:36:00,
2013-09-06 19:41:00,76.0,67.5,29.68,East,93,0.0,0.0,75,0.00,,,0.00,Wunderground v.1.15,2013-09-07 00:41:00,
2013-09-06 19:46:00,75.7,68.0,29.68,East,92,0.0,0.0,77,0.00,,,0.00,Wunderground v.1.15,2013-09-07 00:46:00,
2013-09-06 19:51:00,75.5,67.8,29.68,East,91,0.0,0.0,77,0.00,,,0.00,Wunderground v.1.15,2013-09-07 00:51:00,
2013-09-06 19:56:00,75.2,67.5,29.68,East,89,0.0,0.0,77,0.00,,,0.00,Wunderground v.1.15,2013-09-07 00:56:00,
2013-09-06 20:01:00,74.8,67.5,29.68,East,89,0.0,0.0,78,0.00,,,0.00,Wunderground v.1.15,2013-09-07 01:01:00,
2013-09-06 20:06:00,74.5,67.6,29.68,East,89,0.0,0.0,79,0.00,,,0.00,Wunderground v.1.15,2013-09-07 01:06:00,
2013-09-06 20:11:00,74.1,67.5,29.69,East,89,0.0,0.0,80,0.00,,,0.00,Wunderground v.1.15,2013-09-07 01:11:00,
2013-09-06 20:16:00,73.7,67.5,29.69,East,89,0.0,0.0,81,0.00,,,0.00,Wunderground v.1.15,2013-09-07 01:16:00,
2013-09-06 20:21:00,73.3,67.1,29.69,East,89,0.0,0.0,81,0.00,,,0.00,Wunderground v.1.15,2013-09-07 01:21:00,
2013-09-06 20:26:00,73.0,67.5,29.69,East,89,0.0,0.0,83,0.00,,,0.00,Wunderground v.1.15,2013-09-07 01:26:00,
2013-09-06 20:31:00,73.1,68.3,29.69,East,89,0.0,0.0,85,0.00,,,0.00,Wunderground v.1.15,2013-09-07 01:31:00,
2013-09-06 20:36:00,72.7,67.6,29.69,East,89,0.0,0.0,84,0.00,,,0.00,Wunderground v.1.15,2013-09-07 01:36:00,
2013-09-06 20:41:00,72.4,67.3,29.68,East,89,0.0,0.0,84,0.00,,,0.00,Wunderground v.1.15,2013-09-07 01:41:00,
2013-09-06 20:46:00,72.4,68.3,29.68,East,89,0.0,0.0,87,0.00,,,0.00,Wunderground v.1.15,2013-09-07 01:46:00,
2013-09-06 20:51:00,72.0,67.2,29.68,East,89,0.0,0.0,85,0.00,,,0.00,Wunderground v.1.15,2013-09-07 01:51:00,
2013-09-06 20:56:00,71.8,67.4,29.68,East,89,0.0,0.0,86,0.00,,,0.00,Wunderground v.1.15,2013-09-07 01:56:00,
2013-09-06 21:01:00,71.6,67.5,29.68,East,89,0.0,0.0,87,0.00,,,0.00,Wunderground v.1.15,2013-09-07 02:01:00,
2013-09-06 21:06:00,71.2,66.8,29.68,East,90,0.0,0.0,86,0.00,,,0.00,Wunderground v.1.15,2013-09-07 02:06:00,
2013-09-06 21:11:00,70.9,66.5,29.68,East,90,0.0,0.0,86,0.00,,,0.00,Wunderground v.1.15,2013-09-07 02:11:00,
2013-09-06 21:16:00,70.7,66.6,29.68,East,91,0.0,0.0,87,0.00,,,0.00,Wunderground v.1.15,2013-09-07 02:16:00,
2013-09-06 21:21:00,70.4,66.3,29.68,East,90,0.0,0.0,87,0.00,,,0.00,Wunderground v.1.15,2013-09-07 02:21:00,
2013-09-06 21:26:00,70.2,66.1,29.68,East,90,0.0,0.0,87,0.00,,,0.00,Wunderground v.1.15,2013-09-07 02:26:00,
2013-09-06 21:31:00,69.8,65.8,29.68,East,90,0.0,0.0,87,0.00,,,0.00,Wunderground v.1.15,2013-09-07 02:31:00,
2013-09-06 21:36:00,69.6,65.9,29.68,East,90,0.0,0.0,88,0.00,,,0.00,Wunderground v.1.15,2013-09-07 02:36:00,
2013-09-06 21:41:00,69.6,66.2,29.68,East,90,0.0,0.0,89,0.00,,,0.00,Wunderground v.1.15,2013-09-07 02:41:00,
2013-09-06 21:46:00,69.3,65.6,29.68,East,94,0.0,0.0,88,0.00,,,0.00,Wunderground v.1.15,2013-09-07 02:46:00,
2013-09-06 21:51:00,69.0,65.6,29.68,East,92,0.0,0.0,89,0.00,,,0.00,Wunderground v.1.15,2013-09-07 02:51:00,
2013-09-06 21:56:00,68.8,65.4,29.68,East,94,0.0,0.0,89,0.00,,,0.00,Wunderground v.1.15,2013-09-07 02:56:00,
2013-09-06 22:01:00,68.7,65.3,29.68,East,94,0.0,0.0,89,0.00,,,0.00,Wunderground v.1.15,2013-09-07 03:01:00,
2013-09-06 22:06:00,68.5,65.1,29.68,East,94,0.0,0.0,89,0.00,,,0.00,Wunderground v.1.15,2013-09-07 03:06:00,
2013-09-06 22:11:00,68.5,65.4,29.68,East,98,0.0,0.0,90,0.00,,,0.00,Wunderground v.1.15,2013-09-07 03:11:00,
2013-09-06 22:17:00,68.5,65.4,29.68,East,99,0.0,0.0,90,0.00,,,0.00,Wunderground v.1.15,2013-09-07 03:17:00,
2013-09-06 22:22:00,68.3,65.3,29.68,East,98,0.0,0.0,90,0.00,,,0.00,Wunderground v.1.15,2013-09-07 03:22:00,
2013-09-06 22:27:00,68.4,65.4,29.68,East,99,0.0,0.0,90,0.00,,,0.00,Wunderground v.1.15,2013-09-07 03:27:00,
2013-09-06 22:32:00,68.4,65.4,29.68,East,98,0.0,0.0,90,0.00,,,0.00,Wunderground v.1.15,2013-09-07 03:32:00,
2013-09-06 22:37:00,68.7,65.6,29.68,East,99,0.0,0.0,90,0.00,,,0.00,Wunderground v.1.15,2013-09-07 03:37:00,
2013-09-06 22:42:00,68.8,65.7,29.68,East,98,0.0,0.0,90,0.00,,,0.00,Wunderground v.1.15,2013-09-07 03:42:00,
2013-09-06 22:47:00,68.6,65.5,29.68,East,98,0.0,0.0,90,0.00,,,0.00,Wunderground v.1.15,2013-09-07 03:47:00,
2013-09-06 22:52:00,68.4,65.4,29.68,East,98,0.0,0.0,90,0.00,,,0.00,Wunderground v.1.15,2013-09-07 03:52:00,
2013-09-06 22:57:00,68.1,65.4,29.68,East,99,0.0,0.0,91,0.00,,,0.00,Wunderground v.1.15,2013-09-07 03:57:00,
2013-09-06 23:01:00,68.0,65.3,29.68,East,99,0.0,0.0,91,0.00,,,0.00,Wunderground v.1.15,2013-09-07 04:01:00,
2013-09-06 23:06:00,67.8,65.4,29.68,East,98,0.0,0.0,92,0.00,,,0.00,Wunderground v.1.15,2013-09-07 04:06:00,
2013-09-06 23:11:00,67.6,65.2,29.68,East,99,0.0,0.0,92,0.00,,,0.00,Wunderground v.1.15,2013-09-07 04:11:00,
2013-09-06 23:16:00,67.5,65.4,29.68,East,99,0.0,0.0,93,0.00,,,0.00,Wunderground v.1.15,2013-09-07 04:16:00,
2013-09-06 23:21:00,67.3,64.9,29.68,East,99,0.0,0.0,92,0.00,,,0.00,Wunderground v.1.15,2013-09-07 04:21:00,
2013-09-06 23:26:00,67.2,65.1,29.68,East,99,0.0,0.0,93,0.00,,,0.00,Wunderground v.1.15,2013-09-07 04:26:00,
2013-09-06 23:31:00,67.1,65.0,29.68,East,98,0.0,0.0,93,0.00,,,0.00,Wunderground v.1.15,2013-09-07 04:31:00,
2013-09-06 23:36:00,67.0,65.2,29.68,East,98,0.0,0.0,94,0.00,,,0.00,Wunderground v.1.15,2013-09-07 04:36:00,
2013-09-06 23:41:00,66.8,65.0,29.68,East,98,0.0,0.0,94,0.00,,,0.00,Wunderground v.1.15,2013-09-07 04:41:00,
2013-09-06 23:46:00,66.7,64.9,29.68,East,98,0.0,0.0,94,0.00,,,0.00,Wunderground v.1.15,2013-09-07 04:46:00,
2013-09-06 23:51:00,66.5,64.7,29.68,East,98,0.0,0.0,94,0.00,,,0.00,Wunderground v.1.15,2013-09-07 04:51:00,
2013-09-06 23:56:00,66.4,64.6,29.68,East,99,0.0,0.0,94,0.00,,,0.00,Wunderground v.1.15,2013-09-07 04:56:00,